| time (UTC) | temp C | wind direction | speed KPH | gust KPH | rain 1hr cm | rain 24hr cm | rain mn cm | humidity % | barometer mb |
| 20260505091527 | 13 | 183 | 3.2 | 17.7 | 0.00 | 0.00 | 0.00 | 71 | 1011.8 |
| 20260505091009 | 13 | 161 | 6.4 | 17.7 | 0.00 | 0.00 | 0.00 | 69 | 1011.7 |
| 20260505090503 | 14 | 184 | 1.6 | 12.9 | 0.00 | 0.00 | 0.00 | 68 | 1011.7 |
| 20260505090035 | 14 | 96 | 4.8 | 12.9 | 0.00 | 0.00 | 0.00 | 68 | 1011.5 |
| 20260505085503 | 14 | 106 | 4.8 | 16.1 | 0.00 | 0.00 | 0.00 | 68 | 1011.5 |
| 20260505085007 | 14 | 138 | 6.4 | 16.1 | 0.00 | 0.00 | 0.00 | 68 | 1011.5 |
| 20260505084513 | 14 | 108 | 6.4 | 16.1 | 0.00 | 0.00 | 0.00 | 69 | 1011.6 |
| 20260505084002 | 14 | 148 | 8.0 | 16.1 | 0.00 | 0.00 | 0.00 | 71 | 1011.5 |
| 20260505083507 | 13 | 112 | 6.4 | 16.1 | 0.00 | 0.00 | 0.00 | 72 | 1011.4 |
| 20260505083009 | 13 | 132 | 6.4 | 11.3 | 0.00 | 0.00 | 0.00 | 72 | 1011.4 |
| 20260505082503 | 13 | 102 | 6.4 | 11.3 | 0.00 | 0.00 | 0.00 | 72 | 1011.3 |
| 20260505082010 | 13 | 133 | 3.2 | 11.3 | 0.00 | 0.00 | 0.00 | 72 | 1011.3 |
| 20260505081522 | 13 | 115 | 3.2 | 9.7 | 0.00 | 0.00 | 0.00 | 73 | 1011.2 |
| 20260505081007 | 13 | 146 | 1.6 | 9.7 | 0.00 | 0.00 | 0.00 | 74 | 1011.1 |
| 20260505080507 | 13 | 176 | 1.6 | 9.7 | 0.00 | 0.00 | 0.00 | 75 | 1011.0 |
| 20260505080020 | 13 | 158 | 1.6 | 11.3 | 0.00 | 0.00 | 0.00 | 75 | 1011.0 |
| 20260505075503 | 13 | 206 | 3.2 | 14.5 | 0.00 | 0.00 | 0.00 | 76 | 1011.0 |
| 20260505075007 | 13 | 240 | 4.8 | 14.5 | 0.00 | 0.00 | 0.00 | 75 | 1010.9 |
| 20260505074521 | 13 | 159 | 3.2 | 14.5 | 0.00 | 0.00 | 0.00 | 75 | 1010.8 |
| 20260505074003 | 13 | 162 | 4.8 | 16.1 | 0.00 | 0.00 | 0.00 | 75 | 1010.7 |
| 20260505073504 | 13 | 165 | 6.4 | 16.1 | 0.00 | 0.00 | 0.00 | 75 | 1010.6 |
| 20260505073028 | 13 | 213 | 4.8 | 14.5 | 0.00 | 0.00 | 0.00 | 75 | 1010.5 |
| 20260505072506 | 13 | 107 | 1.6 | 14.5 | 0.00 | 0.00 | 0.00 | 75 | 1010.4 |
| 20260505072007 | 13 | 194 | 4.8 | 14.5 | 0.00 | 0.00 | 0.00 | 75 | 1010.4 |
| 20260505071519 | 13 | 167 | 1.6 | 16.1 | 0.00 | 0.00 | 0.00 | 75 | 1010.4 |
| 20260505071004 | 14 | 204 | 6.4 | 16.1 | 0.00 | 0.00 | 0.00 | 74 | 1010.3 |
| 20260505070512 | 14 | 165 | 3.2 | 14.5 | 0.00 | 0.00 | 0.00 | 74 | 1010.2 |
| 20260505070012 | 14 | 227 | 4.8 | 16.1 | 0.00 | 0.00 | 0.00 | 74 | 1010.1 |
| 20260505065507 | 14 | 99 | 3.2 | 16.1 | 0.00 | 0.00 | 0.00 | 74 | 1010.1 |
| 20260505065009 | 14 | 217 | 1.6 | 12.9 | 0.00 | 0.00 | 0.00 | 74 | 1010.0 |
| 20260505064530 | 15 | 219 | 3.2 | 12.9 | 0.00 | 0.00 | 0.00 | 73 | 1009.9 |
| 20260505064003 | 15 | 101 | 1.6 | 12.9 | 0.00 | 0.00 | 0.00 | 73 | 1009.9 |
| 20260505063507 | 15 | 169 | 4.8 | 12.9 | 0.00 | 0.00 | 0.00 | 73 | 1009.9 |
| 20260505063018 | 15 | 178 | 3.2 | 9.7 | 0.00 | 0.00 | 0.00 | 73 | 1009.9 |
| 20260505062508 | 15 | 196 | 3.2 | 16.1 | 0.00 | 0.00 | 0.00 | 72 | 1009.9 |
| 20260505062006 | 15 | 187 | 1.6 | 16.1 | 0.00 | 0.00 | 0.00 | 73 | 1010.0 |
| 20260505061539 | 15 | 194 | 3.2 | 12.9 | 0.00 | 0.00 | 0.00 | 73 | 1010.0 |
| 20260505061009 | 15 | 192 | 3.2 | 8.0 | 0.00 | 0.00 | 0.00 | 73 | 1010.0 |
| 20260505060510 | 15 | 184 | 0.0 | 8.0 | 0.00 | 0.00 | 0.00 | 74 | 1009.7 |
| 20260505060018 | 15 | 219 | 1.6 | 14.5 | 0.00 | 0.00 | 0.00 | 73 | 1009.7 |
| 20260505055513 | 15 | 147 | 1.6 | 14.5 | 0.00 | 0.00 | 0.00 | 74 | 1009.7 |
| 20260505055015 | 15 | 164 | 1.6 | 11.3 | 0.00 | 0.00 | 0.00 | 74 | 1009.7 |
| 20260505054518 | 15 | 197 | 3.2 | 11.3 | 0.00 | 0.00 | 0.00 | 74 | 1009.7 |
| 20260505054012 | 15 | 219 | 3.2 | 9.7 | 0.00 | 0.00 | 0.00 | 73 | 1009.7 |
| 20260505053509 | 15 | 190 | 3.2 | 9.7 | 0.00 | 0.00 | 0.00 | 73 | 1009.7 |
| 20260505053015 | 15 | 223 | 1.6 | 12.9 | 0.00 | 0.00 | 0.00 | 73 | 1009.7 |
| 20260505052505 | 15 | 82 | 1.6 | 12.9 | 0.00 | 0.00 | 0.00 | 73 | 1009.7 |
| 20260505052011 | 15 | 186 | 1.6 | 9.7 | 0.00 | 0.00 | 0.00 | 74 | 1009.6 |
| 20260505051520 | 15 | 106 | 1.6 | 9.7 | 0.00 | 0.00 | 0.00 | 74 | 1009.5 |
| 20260505051010 | 15 | 194 | 3.2 | 9.7 | 0.00 | 0.00 | 0.00 | 74 | 1009.5 |
| 20260505050506 | 16 | 232 | 3.2 | 12.9 | 0.00 | 0.00 | 0.00 | 74 | 1009.4 |
| 20260505041521 | 16 | 208 | 3.2 | 9.7 | 0.00 | 0.00 | 0.00 | 75 | 1009.2 |
| 20260505041010 | 16 | 200 | 3.2 | 11.3 | 0.00 | 0.00 | 0.00 | 75 | 1009.2 |
| 20260505040510 | 16 | 196 | 3.2 | 11.3 | 0.00 | 0.00 | 0.00 | 75 | 1009.1 |
| 20260505040018 | 16 | 186 | 1.6 | 8.0 | 0.00 | 0.00 | 0.00 | 76 | 1009.1 |
| 20260505035510 | 16 | 210 | 1.6 | 8.0 | 0.00 | 0.00 | 0.00 | 75 | 1009.1 |
| 20260505035011 | 16 | 217 | 1.6 | 8.0 | 0.00 | 0.00 | 0.00 | 75 | 1009.0 |
| 20260505034522 | 16 | 224 | 3.2 | 11.3 | 0.00 | 0.00 | 0.00 | 74 | 1008.9 |
| 20260505034011 | 16 | 229 | 3.2 | 11.3 | 0.00 | 0.00 | 0.00 | 74 | 1008.8 |
| 20260505033506 | 17 | 207 | 0.0 | 9.7 | 0.00 | 0.00 | 0.00 | 73 | 1008.8 |
| 20260505033021 | 17 | 167 | 1.6 | 8.0 | 0.00 | 0.00 | 0.00 | 72 | 1008.8 |
| 20260505032506 | 17 | 220 | 3.2 | 8.0 | 0.00 | 0.00 | 0.00 | 71 | 1008.7 |
| 20260505032007 | 17 | 178 | 1.6 | 8.0 | 0.00 | 0.00 | 0.00 | 69 | 1008.7 |
| 20260505031537 | 18 | 217 | 3.2 | 8.0 | 0.00 | 0.00 | 0.00 | 66 | 1008.6 |
| 20260505031011 | 18 | 234 | 1.6 | 8.0 | 0.00 | 0.00 | 0.00 | 63 | 1008.5 |
| 20260505030508 | 19 | 228 | 3.2 | 8.0 | 0.00 | 0.00 | 0.00 | 61 | 1008.4 |
| 20260505030018 | 20 | 219 | 0.0 | 4.8 | 0.00 | 0.00 | 0.00 | 56 | 1008.4 |
| 20260505025509 | 20 | 213 | 1.6 | 4.8 | 0.00 | 0.00 | 0.00 | 53 | 1008.3 |
| 20260505025008 | 21 | 182 | 1.6 | 6.4 | 0.00 | 0.00 | 0.00 | 50 | 1008.3 |
| 20260505024532 | 21 | 140 | 1.6 | 6.4 | 0.00 | 0.00 | 0.00 | 47 | 1008.5 |
| 20260505024007 | 21 | 173 | 0.0 | 6.4 | 0.00 | 0.00 | 0.00 | 45 | 1008.4 |
| 20260505023508 | 22 | 173 | 0.0 | 12.9 | 0.00 | 0.00 | 0.00 | 44 | 1008.4 |
| 20260505023020 | 22 | 105 | 3.2 | 12.9 | 0.00 | 0.00 | 0.00 | 43 | 1008.5 |
| 20260505022508 | 22 | 194 | 3.2 | 16.1 | 0.00 | 0.00 | 0.00 | 43 | 1008.5 |
| 20260505022003 | 21 | 107 | 1.6 | 16.1 | 0.00 | 0.00 | 0.00 | 46 | 1008.6 |
| 20260505021513 | 21 | 171 | 3.2 | 14.5 | 0.00 | 0.00 | 0.00 | 46 | 1008.6 |
| 20260505021006 | 21 | 176 | 6.4 | 17.7 | 0.00 | 0.00 | 0.00 | 46 | 1008.7 |
| 20260505020503 | 21 | 194 | 4.8 | 17.7 | 0.00 | 0.00 | 0.00 | 45 | 1008.7 |
| 20260505020025 | 21 | 140 | 6.4 | 17.7 | 0.00 | 0.00 | 0.00 | 44 | 1008.8 |
| 20260505015508 | 21 | 200 | 6.4 | 20.9 | 0.00 | 0.00 | 0.00 | 45 | 1008.7 |
| 20260505015003 | 21 | 88 | 6.4 | 20.9 | 0.00 | 0.00 | 0.00 | 45 | 1008.8 |
| 20260505014510 | 21 | 169 | 8.0 | 17.7 | 0.00 | 0.00 | 0.00 | 46 | 1008.8 |
| 20260505014002 | 21 | 148 | 4.8 | 12.9 | 0.00 | 0.00 | 0.00 | 46 | 1008.8 |
| 20260505013504 | 21 | 158 | 3.2 | 14.5 | 0.00 | 0.00 | 0.00 | 46 | 1008.8 |
| 20260505013004 | 21 | 161 | 6.4 | 14.5 | 0.00 | 0.00 | 0.00 | 46 | 1008.9 |
| 20260505012502 | 21 | 142 | 4.8 | 14.5 | 0.00 | 0.00 | 0.00 | 46 | 1008.9 |
| 20260505012004 | 21 | 296 | 4.8 | 16.1 | 0.00 | 0.00 | 0.00 | 48 | 1008.9 |
| 20260505011504 | 21 | 236 | 6.4 | 17.7 | 0.00 | 0.00 | 0.00 | 48 | 1008.9 |
| 20260505011004 | 21 | 161 | 4.8 | 17.7 | 0.00 | 0.00 | 0.00 | 48 | 1009.0 |
| 20260505010508 | 22 | 124 | 3.2 | 16.1 | 0.00 | 0.00 | 0.00 | 49 | 1009.0 |
| 20260505010004 | 22 | 234 | 4.8 | 16.1 | 0.00 | 0.00 | 0.00 | 47 | 1009.0 |
| 20260505005503 | 22 | 119 | 6.4 | 14.5 | 0.00 | 0.00 | 0.00 | 49 | 1009.0 |
| 20260505005006 | 22 | 104 | 4.8 | 17.7 | 0.00 | 0.00 | 0.00 | 49 | 1009.0 |
| 20260505004540 | 22 | 55 | 6.4 | 17.7 | 0.00 | 0.00 | 0.00 | 48 | 1009.0 |
| 20260505004003 | 22 | 208 | 4.8 | 16.1 | 0.00 | 0.00 | 0.00 | 48 | 1009.1 |
| 20260505003502 | 22 | 207 | 6.4 | 16.1 | 0.00 | 0.00 | 0.00 | 49 | 1009.1 |
| 20260505003008 | 22 | 188 | 3.2 | 16.1 | 0.00 | 0.00 | 0.00 | 49 | 1009.0 |
| 20260505002509 | 22 | 164 | 4.8 | 14.5 | 0.00 | 0.00 | 0.00 | 52 | 1009.1 |
| 20260505002007 | 22 | 202 | 6.4 | 14.5 | 0.00 | 0.00 | 0.00 | 50 | 1009.1 |
| 20260505001512 | 22 | 181 | 8.0 | 16.1 | 0.00 | 0.00 | 0.00 | 49 | 1009.2 |
| 20260505001007 | 22 | 198 | 8.0 | 16.1 | 0.00 | 0.00 | 0.00 | 49 | 1009.3 |
| 20260505000503 | 22 | 211 | 8.0 | 14.5 | 0.00 | 0.00 | 0.00 | 50 | 1009.3 |
| 20260505000026 | 22 | 112 | 6.4 | 12.9 | 0.00 | 0.00 | 0.00 | 50 | 1009.2 |
| 20260504235506 | 23 | 165 | 4.8 | 12.9 | 0.00 | 0.00 | 0.00 | 48 | 1009.2 |
| 20260504235004 | 23 | 220 | 6.4 | 12.9 | 0.00 | 0.00 | 0.00 | 50 | 1009.3 |
| 20260504234507 | 23 | 207 | 6.4 | 12.9 | 0.00 | 0.00 | 0.00 | 47 | 1009.2 |
| 20260504234003 | 23 | 208 | 4.8 | 12.9 | 0.00 | 0.00 | 0.00 | 49 | 1009.5 |
| 20260504233504 | 23 | 204 | 3.2 | 12.9 | 0.00 | 0.00 | 0.00 | 46 | 1009.4 |
| 20260504233003 | 23 | 178 | 6.4 | 14.5 | 0.00 | 0.00 | 0.00 | 45 | 1009.4 |
| 20260504232507 | 23 | 146 | 4.8 | 14.5 | 0.00 | 0.00 | 0.00 | 44 | 1009.3 |
| 20260504232007 | 23 | 174 | 4.8 | 12.9 | 0.00 | 0.00 | 0.00 | 45 | 1009.3 |
| 20260504231516 | 23 | 190 | 6.4 | 12.9 | 0.00 | 0.00 | 0.00 | 45 | 1009.4 |
| 20260504231004 | 23 | 222 | 6.4 | 12.9 | 0.00 | 0.00 | 0.00 | 45 | 1009.5 |
| 20260504230504 | 23 | 219 | 4.8 | 12.9 | 0.00 | 0.00 | 0.00 | 47 | 1009.5 |
| 20260504230020 | 23 | 176 | 1.6 | 11.3 | 0.00 | 0.00 | 0.00 | 43 | 1009.6 |
| 20260504225504 | 23 | 219 | 4.8 | 9.7 | 0.00 | 0.00 | 0.00 | 43 | 1009.6 |
| 20260504225008 | 23 | 245 | 4.8 | 9.7 | 0.00 | 0.00 | 0.00 | 45 | 1009.6 |
| 20260504224509 | 23 | 257 | 3.2 | 9.7 | 0.00 | 0.00 | 0.00 | 43 | 1009.7 |
| 20260504224006 | 23 | 223 | 3.2 | 11.3 | 0.00 | 0.00 | 0.00 | 48 | 1009.8 |
| 20260504223504 | 23 | 201 | 3.2 | 11.3 | 0.00 | 0.00 | 0.00 | 47 | 1009.8 |
| 20260504223011 | 23 | 183 | 4.8 | 9.7 | 0.00 | 0.00 | 0.00 | 49 | 1009.9 |
| 20260504222504 | 23 | 240 | 1.6 | 12.9 | 0.00 | 0.00 | 0.00 | 47 | 1010.0 |
| 20260504222004 | 23 | 175 | 4.8 | 12.9 | 0.00 | 0.00 | 0.00 | 47 | 1010.0 |
| 20260504221510 | 23 | 242 | 4.8 | 11.3 | 0.00 | 0.00 | 0.00 | 51 | 1010.0 |
| 20260504221008 | 23 | 269 | 4.8 | 9.7 | 0.00 | 0.00 | 0.00 | 49 | 1009.9 |
| 20260504220507 | 22 | 236 | 3.2 | 14.5 | 0.00 | 0.00 | 0.00 | 49 | 1010.0 |
| 20260504220011 | 22 | 113 | 6.4 | 14.5 | 0.00 | 0.00 | 0.00 | 53 | 1010.0 |
| 20260504215504 | 22 | 199 | 1.6 | 11.3 | 0.00 | 0.00 | 0.00 | 52 | 1009.9 |
| 20260504215011 | 22 | 185 | 4.8 | 12.9 | 0.00 | 0.00 | 0.00 | 52 | 1010.0 |
| 20260504214508 | 22 | 207 | 6.4 | 12.9 | 0.00 | 0.00 | 0.00 | 53 | 1010.1 |
| 20260504214004 | 22 | 126 | 4.8 | 11.3 | 0.00 | 0.00 | 0.00 | 53 | 1010.1 |
| 20260504213505 | 22 | 214 | 3.2 | 11.3 | 0.00 | 0.00 | 0.00 | 51 | 1010.1 |
| 20260504213011 | 22 | 190 | 3.2 | 11.3 | 0.00 | 0.00 | 0.00 | 51 | 1010.2 |
| 20260504212506 | 22 | 165 | 3.2 | 9.7 | 0.00 | 0.00 | 0.00 | 53 | 1010.3 |
| 20260504212008 | 22 | 246 | 3.2 | 11.3 | 0.00 | 0.00 | 0.00 | 51 | 1010.3 |
| 20260504211519 | 22 | 207 | 3.2 | 14.5 | 0.00 | 0.00 | 0.00 | 49 | 1010.3 |
| 20260504211004 | 22 | 124 | 3.2 | 14.5 | 0.00 | 0.00 | 0.00 | 50 | 1010.3 |
| 20260504210504 | 22 | 225 | 4.8 | 12.9 | 0.00 | 0.00 | 0.00 | 50 | 1010.3 |
| 20260504210023 | 21 | 163 | 6.4 | 12.9 | 0.00 | 0.00 | 0.00 | 54 | 1010.3 |
| 20260504205507 | 21 | 242 | 4.8 | 12.9 | 0.00 | 0.00 | 0.00 | 52 | 1010.4 |
| 20260504205004 | 21 | 207 | 6.4 | 12.9 | 0.00 | 0.00 | 0.00 | 56 | 1010.4 |
| 20260504204510 | 21 | 221 | 6.4 | 12.9 | 0.00 | 0.00 | 0.00 | 57 | 1010.4 |
| 20260504204004 | 21 | 239 | 6.4 | 9.7 | 0.00 | 0.00 | 0.00 | 53 | 1010.4 |
| 20260504203505 | 21 | 248 | 4.8 | 11.3 | 0.00 | 0.00 | 0.00 | 56 | 1010.4 |
| 20260504203027 | 21 | 178 | 3.2 | 11.3 | 0.00 | 0.00 | 0.00 | 53 | 1010.4 |
| 20260504202012 | 22 | 141 | 1.6 | 11.3 | 0.00 | 0.00 | 0.00 | 56 | 1010.3 |
| 20260504201507 | 22 | 214 | 3.2 | 11.3 | 0.00 | 0.00 | 0.00 | 54 | 1010.4 |
| 20260504201005 | 22 | 169 | 3.2 | 11.3 | 0.00 | 0.00 | 0.00 | 58 | 1010.4 |
| 20260504200509 | 21 | 259 | 3.2 | 8.0 | 0.00 | 0.00 | 0.00 | 54 | 1010.5 |
| 20260504200020 | 21 | 155 | 4.8 | 12.9 | 0.00 | 0.00 | 0.00 | 56 | 1010.6 |
| 20260504195503 | 21 | 124 | 3.2 | 12.9 | 0.00 | 0.00 | 0.00 | 58 | 1010.6 |
| 20260504195003 | 21 | 224 | 6.4 | 11.3 | 0.00 | 0.00 | 0.00 | 58 | 1010.6 |
| 20260504194512 | 21 | 221 | 3.2 | 12.9 | 0.00 | 0.00 | 0.00 | 58 | 1010.6 |
| 20260504194005 | 21 | 137 | 3.2 | 12.9 | 0.00 | 0.00 | 0.00 | 60 | 1010.6 |
| 20260504193508 | 21 | 213 | 6.4 | 11.3 | 0.00 | 0.00 | 0.00 | 59 | 1010.6 |
| 20260504193019 | 21 | 176 | 4.8 | 11.3 | 0.00 | 0.00 | 0.00 | 61 | 1010.5 |
| 20260504192508 | 20 | 217 | 4.8 | 11.3 | 0.00 | 0.00 | 0.00 | 59 | 1010.4 |
| 20260504192006 | 21 | 205 | 3.2 | 11.3 | 0.00 | 0.00 | 0.00 | 58 | 1010.3 |
| 20260504191516 | 20 | 232 | 4.8 | 12.9 | 0.00 | 0.00 | 0.00 | 60 | 1010.4 |
| 20260504191006 | 20 | 170 | 1.6 | 12.9 | 0.00 | 0.00 | 0.00 | 59 | 1010.5 |
| 20260504190515 | 20 | 109 | 3.2 | 14.5 | 0.00 | 0.00 | 0.00 | 60 | 1010.6 |
| 20260504190014 | 20 | 209 | 6.4 | 14.5 | 0.00 | 0.00 | 0.00 | 62 | 1010.6 |
| 20260504185504 | 20 | 198 | 3.2 | 11.3 | 0.00 | 0.00 | 0.00 | 63 | 1010.6 |
| 20260504185006 | 20 | 202 | 4.8 | 11.3 | 0.00 | 0.00 | 0.00 | 61 | 1010.6 |
| 20260504184514 | 20 | 195 | 3.2 | 9.7 | 0.00 | 0.00 | 0.00 | 62 | 1010.6 |
| 20260504184003 | 20 | 216 | 1.6 | 11.3 | 0.00 | 0.00 | 0.00 | 65 | 1010.6 |
| 20260504183509 | 20 | 179 | 4.8 | 11.3 | 0.00 | 0.00 | 0.00 | 64 | 1010.6 |
| 20260504183022 | 20 | 200 | 4.8 | 12.9 | 0.00 | 0.00 | 0.00 | 65 | 1010.7 |
| 20260504182505 | 20 | 274 | 6.4 | 12.9 | 0.00 | 0.00 | 0.00 | 65 | 1010.6 |
| 20260504182011 | 20 | 169 | 4.8 | 11.3 | 0.00 | 0.00 | 0.00 | 66 | 1010.7 |
| 20260504181522 | 20 | 189 | 1.6 | 11.3 | 0.00 | 0.00 | 0.00 | 67 | 1010.7 |
| 20260504181003 | 19 | 236 | 4.8 | 12.9 | 0.00 | 0.00 | 0.00 | 67 | 1010.7 |
| 20260504180508 | 19 | 250 | 4.8 | 12.9 | 0.00 | 0.00 | 0.00 | 64 | 1010.7 |
| 20260504151006 | 13 | 17 | 0.0 | 0.0 | 0.00 | 0.00 | 0.00 | 79 | 1010.4 |
| 20260504150504 | 13 | 20 | 0.0 | 0.0 | 0.00 | 0.00 | 0.00 | 79 | 1010.4 |
| 20260504141011 | 10 | 17 | 0.0 | 0.0 | 0.00 | 0.00 | 0.00 | 90 | 1010.3 |
| 20260504140504 | 10 | 17 | 0.0 | 0.0 | 0.00 | 0.00 | 0.00 | 91 | 1010.3 |
| 20260504130503 | 9 | 17 | 0.0 | 0.0 | 0.00 | 0.00 | 0.00 | 91 | 1009.7 |
| 20260504110503 | 10 | 17 | 0.0 | 0.0 | 0.00 | 0.00 | 0.00 | 89 | 1009.7 |
| 20260504100503 | 10 | 5 | 0.0 | 0.0 | 0.00 | 0.00 | 0.00 | 89 | 1009.5 |